Location: Newark
(37.9800°N, 91.3000°W)
Time: 16:57:21
(UTC+00:00)

LightSail 2 - Pass Details

Date: 21 October 2019
Orbit: 700 x 727 km, 24.0° (Epoch: 17 November)

Event Time Altitude Azimuth Distance (km) Brightness Sun altitude
Rises 00:09:58 0° 245° (WSW) 3,073 10.0 -10.4°
Reaches altitude 10° 00:13:49 10° 216° (SW) 2,159 8.2 -11.1°
Maximum altitude 00:15:54 12° 192° (SSW) 1,996 7.7 -11.5°
Drops below altitude 10° 00:18:00 10° 167° (SSE) 2,165 7.6 -11.9°
Enters shadow 00:21:28 - 141° (SE) 2,969 8.0 -12.6°
